Время (UTC), дата Ветер
(°,м/с) 
Видим.   Явления Облачность Т
(°С)
Тd
(°С)
f(%) Тe
(°С)
Pmin
(гПа)
dP
(гПа)
Po
(мм)
O2
(г/м3)
Тmin Tmax R s Состояние
почвы
00 30.04.15 120 (ЮВ) 20000 м    10/0 средняя 
[Ac und]
+13.3 +8.1 71 +13  1010  -0.4  718  274           
03 30.04.15 270 (З) 20000 м    9/3 600 м средняя 
[Sc|Ac trans]
+13.9 +6.5 61 +14  1011.5  1.5  719  275  +12.8        сухая 
06 30.04.15 310 (СЗ) 20000 м    8/0 средняя 
[Ac trans]
+17.1 +7.4 53 +18  1012.2  1.2  720  272           
09 30.04.15 120 (ЮВ) 20000 м    9/4 1000 м средняя 
[Sc|Ac trans]
+19.1 +9.1 52 +21  1012.2  0.3  720  270           
12 30.04.15 130 (ЮВ) 20000 м    9/5 1000 м кучево-дожд., средняя 
[Cb calv|Ac trans]
+19.1 +9.1 52 +21  1011.7  -0.5  720  270           
15 30.04.15 060 (СВ) 20000 м  гроза без осадков  9/6 600 м кучево-дожд., средняя 
[Cb calv|Ac trans]
+16.4 +8 58 +16  1012.8  0.6  721  272    +20.1       
18 30.04.15 160 (Ю) 2{11}  20000 м  в посл. час ливневой дождь{гроза}  10/5 600 м кучево-дожд., средняя 
[Cb calv|Ac und]
+11.1 +10.3 95 +13  1014.8  721  277           
21 30.04.15 280 (З) 20000 м    10/4 1000 м средняя 
[Sc diur, vesp|Ac und]
+12.1 +8.9 81 +12  1015.2  0.5  722  277           
00 01.05.15 270 (З) 20000 м    9/4 1000 м средняя 
[Sc diur, vesp|Ac trans]
+11.2 +8.2 82 +11  1014.5  -0.8  721  278           
03 01.05.15 290 (З) 6{11}  20000 м    9/0 средняя 
[Ac trans]
+11.3 +8 80 +10  1014.6  0.1  721  278  +10.8    28    влажная 
06 01.05.15 290 (З) 6-10{10}  20000 м    3/1 600 м средняя 
[Sc|Ac trans]
+14.2 +9.3 72 +14  1014.9  0.7  722  275           
09 01.05.15 340 (С) 4{10}  20000 м    8/6 600 м кучево-дожд., средняя 
[Cb calv|Ac trans]
+16.5 +10.3 67 +19  1014.2  0.1  722  272           
12 01.05.15 360 (С) 20000 м    4/4 600 м 
[Cu med, cong]
+18 +8.6 54 +18  1013.2  -0.8  721  271           
Время (UTC), дата Ветер
(°,м/с) 
Видим.   Явления Облачность Т
(°С)
Тd
(°С)
f(%) Тe
(°С)
Pmin
(гПа)
dP
(гПа)
Po
(мм)
O2
(г/м3)
Тmin Tmax R s Состояние
почвы